Location: Unspecified
(0.0000°N, 0.0000°E)
Time: 23:18:51
(UTC+00:00)

Explorer 11/Cluster Stage 4 - Visible Passes

Search period start: 24 May 2015 00:00
Search period end: 03 June 2015 00:00
Orbit: 467 x 1272 km, 28.8° (Epoch: 23 May)

Date Brightness Start Highest point End Pass type
(mag) Time Alt. Az. Time Alt. Az. Time Alt. Az.
24 May 7.7 18:38:03 10° SW 18:45:16 40° SSE 18:50:38 14° E visible
24 May 7.8 20:27:38 10° WSW 20:33:01 47° W 20:33:01 47° W visible
25 May 7.6 18:29:03 10° SW 18:36:43 49° SSE 18:43:14 10° ENE visible
25 May 7.6 20:19:02 10° WSW 20:26:03 49° NNW 20:26:17 49° NNW visible
26 May 7.4 18:20:08 10° SW 18:28:07 59° SSE 18:34:57 10° ENE visible
26 May 8.1 20:10:29 10° W 20:17:26 41° NNW 20:19:38 31° N visible
27 May 8.4 05:24:36 10° N 05:27:06 17° NNE 05:29:54 10° ENE visible
27 May 7.4 18:11:16 10° SW 18:19:29 72° SSE 18:26:35 10° ENE visible
27 May 8.5 20:02:01 10° W 20:08:50 35° NNW 20:12:59 17° NNE visible
28 May 8.1 05:15:47 10° NNW 05:18:41 22° NNE 05:21:54 10° E visible
28 May 8.8 19:53:38 10° W 20:00:13 29° NNW 20:05:47 10° NNE visible
29 May 7.5 05:07:05 10° NNW 05:10:17 29° NNE 05:13:47 10° E visible
29 May 9.1 19:45:21 10° W 19:51:37 25° NNW 19:57:00 10° NNE visible
30 May 6.8 04:58:29 10° NW 05:01:53 41° NNE 05:05:33 10° ESE visible
30 May 9.4 19:37:09 10° WNW 19:43:03 22° NNW 19:48:09 10° NNE visible
31 May 6.0 04:50:00 10° NW 04:53:30 59° NNE 04:57:14 10° ESE visible
31 May 9.6 19:29:05 10° WNW 19:34:30 19° NNW 19:39:15 10° NNE visible
01 Jun 5.4 04:43:12 26° WNW 04:45:07 88° NNE 04:48:50 10° ESE visible
01 Jun 9.7 19:21:09 10° WNW 19:25:59 16° NNW 19:30:13 10° N visible
02 Jun 5.4 04:36:21 58° WSW 04:36:44 63° SSW 04:40:22 10° SE visible
02 Jun 9.8 19:13:24 10° NW 19:17:30 14° NNW 19:21:05 10° N visible
